Regional Weather Roundup
Issued by NWS

Home | Current Version | Previous Version | Text Only | Print | Product List | Glossary On
Versions: 1 2 3 4 5 6 7 8 9 10 11 12 13 14 15 16 17 18 19 20 21 22 23 24 25 26 27 28 29 30 31 32 33 34 35 36 37 38 39 40 41 42 43 44 45 46 47 48 49 50
000
ASUS43 KDTX 032210
RWRMI
MICHIGAN HOURLY REGIONAL WEATHER ROUNDUP
NATIONAL WEATHER SERVICE DETROIT/PONTIAC MI
600 PM EDT THU SEP 03 2015

NOTE: "FAIR" INDICATES FEW OR NO CLOUDS BELOW 12,000 FEET WITH NO
SIGNIFICANT WEATHER AND/OR OBSTRUCTION TO VISIBILITY.

MIZ047>049-052>055-059>063-066>070-074>076-081>083-032300-
SOUTHEAST LOWER MICHIGAN

CITY           SKY/WX    TMP DP  RH WIND       PRES   REMARKS
ADRIAN         PTSUNNY   89  65  44 W9        29.89F HX  91
ALMA           CLOUDY    68  67  98 E8        29.90F FOG
ANN ARBOR      TSTM      72  68  87 NE13      29.91F
BAD AXE        CLOUDY    71  67  88 E3        29.93R
CARO           HVY RAIN  66  66  98 CALM      29.91R
DETROIT CITY   CLOUDY    74  68  81 CALM      29.90F
DETROIT        CLOUDY    75  70  83 E6        29.91S THUNDER
FLINT          RAIN      74  67  78 SE8       29.90S
GROSSE ILE     LGT RAIN  72  68  88 NE6       29.89S
HILLSDALE      MOSUNNY   87  67  50 SW9G17    29.91S
HOWELL         HVY RAIN  69  64  85 SW8       29.94R

CITY           SKY/WX    TMP DP  RH WIND       PRES   REMARKS
JACKSON        PTSUNNY   77  69  76 N7G21     29.91R
LAMBERTVILLE   PTSUNNY   88  66  47 SW6       29.90R HX  90
LANSING        CLOUDY    72  68  87 SW6       29.90S
LAPEER         DRIZZLE   68  68  99 CALM      29.91S
MASON          RAIN      71  65  82 SE5       29.91F
MONROE         CLOUDY    77  67  70 E8        29.89R
MT. CLEMENS    PTSUNNY   70  67  91 SE3       29.90R
PONTIAC        CLOUDY    71  66  84 SE10      29.90F
PORT HOPE        N/A     70  68  93 E8        29.93R
PORT HURON     CLOUDY    68  68 100 E3        29.92R
TRI CITIES     HVY RAIN  69  66  90 CALM      29.92R VSB 3/4
MIDLAND        CLOUDY    69  68  96 SE5       29.89S
TROY           CLOUDY    71  69  90 CALM      29.93S
SAGINAW HB     LGT RAIN  66  64  94 E8        29.89F
$$
MIZ043>046-050>051-056>058-064>065-071>073-077>080-032300-
SOUTHWEST LOWER MICHIGAN

CITY           SKY/WX    TMP DP  RH WIND       PRES   REMARKS
BATTLE CREEK   PTSUNNY   87  69  54 W10G21    29.89S HX  91
BENTON HARBOR  PTSUNNY   86  69  56 SW10      29.88S HX  90
BIG RAPIDS     PTSUNNY   76  69  78 W7        29.89S
COLDWATER      MOSUNNY   88  65  47 W15G22    29.89F
FREMONT        FAIR      76  69  78 W9        29.89S
HOLLAND        SUNNY     80  71  74 NW6       29.91S
GRAND RAPIDS   PTSUNNY   81  71  71 W14       29.89S
IONIA          FAIR      79  72  79 W10       29.88S
KALAMAZOO      LGT RAIN  88  68  51 W13G20    29.89F HX  91
LUDINGTON      CLOUDY    69  67  92 NW3       29.90S FOG
MARSHALL       PTSUNNY   84  69  60 SW7       29.89R
MOUNT PLEASANT LGT RAIN  71  69  94 SE5       29.89S
MUSKEGON       CLOUDY    75  65  70 NW10      29.91R
SOUTH HAVEN    CLOUDY    78  69  73 N6        29.89S
$$
MIZ016>042-032300-
NORTHERN LOWER MICHIGAN

CITY           SKY/WX    TMP DP  RH WIND       PRES   REMARKS
ALPENA         CLOUDY    71  67  87 NE7       29.95R
BEAVER ISLAND  MOSUNNY   72  64  76 E14G20    29.94S
BELLAIRE       CLOUDY    73  64  75 NE7       29.90F
CADILLAC       CLOUDY    74  69  83 CALM      29.90S
CHARLEVOIX     PTSUNNY   73  67  82 N6        29.94S
FRANKFORT      PTSUNNY   73  70  91 NE3       29.89S
GAYLORD        LGT RAIN  67  67 100 NE7       29.93F FOG
GRAYLING       HVY RAIN  66  66  97 NE6       29.93S
HARBOR SPRINGS CLOUDY    71  66  85 NE7G16    29.92R
HOUGHTON LAKE  CLOUDY    68  66  93 SE5       29.91F
MANISTEE       CLOUDY    68  64  88 NW6       29.90S
OSCODA         CLOUDY    70  67  93 E6        29.93R
PELLSTON       CLOUDY    71  67  87 NE8       29.94F
ROGERS CITY    CLOUDY    69  65  90 E8        29.95F FOG
TRAVERSE CITY  CLOUDY    72  67  84 NE5       29.89S
$$
MIZ007>008-015-032300-
EASTERN UPPER MICHIGAN

CITY           SKY/WX    TMP DP  RH WIND       PRES   REMARKS
KINROSS        PTSUNNY   75  63  64 E8        29.96S
MACKINAC ISLAN CLOUDY    66  65  95 E7        29.94F FOG
NEWBERRY       MOSUNNY   79  63  57 E8        29.95F
S. S. MARIE    PTSUNNY   78  65  63 SE5       29.95F
MUNISING         N/A     69  63  81 NW15      29.97F
$$
MIZ004>006-011>014-085-032300-
CENTRAL UPPER MICHIGAN

CITY           SKY/WX    TMP DP  RH WIND       PRES   REMARKS
MANISTIQUE     SUNNY     78  63  59 E8G16     29.94F
ESCANABA       SUNNY     75  64  69 S5        29.93F
MENOMINEE      SUNNY     73  64  73 E9        29.93S
SAWYER-GWINN   SUNNY     72  61  68 NE13      30.01R
$$
MIZ001>003-009>011-084-032300-
WESTERN UPPER MICHIGAN

CITY           SKY/WX    TMP DP  RH WIND       PRES   REMARKS
IRON MOUNTAIN  MOSUNNY   79  64  60 NE5       29.97R
HOUGHTON       SUNNY     75  56  51 SE9       29.98F
COPPER HARBOR    N/A     72  58  61 CALM      29.98F
IRONWOOD       SUNNY     73  64  73 NE5       29.94F
$$

ABBREVIATIONS USED IN REMARKS
   TC - TEMPERATURE IN CELSIUS
  WCI - WIND CHILL INDEX
   HX - HEAT INDEX
  VSB - VISIBILITY




USA.gov is the U.S. government's official web portal to all federal, state and local government web resources and services.